Weather History for K0VG - March, 2013

Change the Weather History Date:

Friday, March 1, 2013

  Actual Average (KLOZ) Record (KLOZ)
Temperature  
Mean Temperature 36 °F 43 °F  
Max Temperature 41 °F 54 °F 77 °F (1976)
Min Temperature 32 °F 33 °F 11 °F (1960)
Degree Days  
Heating Degree Days 28 22  
Month to date heating degree days 22  
Since 1 July heating degree days 3298  
Cooling Degree Days 0 0  
Month to date cooling degree days 0  
Year to date cooling degree days 0  
Moisture  
Dew Point 31 °F    
Average Humidity 86    
Maximum Humidity 100    
Minimum Humidity 61    
Precipitation  
Precipitation 0.00 in 0.14 in 2.51 in (2007)
Month to date precipitation 0.14  
Year to date precipitation 7.39  
Sea Level Pressure  
Sea Level Pressure 29.95 in    
Wind  
Wind Speed 4 mph (WSW)    
Max Wind Speed 10 mph    
Max Gust Speed -    
Visibility 8 miles    
Events Rain    
T = Trace of Precipitation, MM = Missing Value Source: NWS Daily Summary

Daily Weather History Graph

Daily Weather History Graph

Search for Another Location

Airport or City:

Trip Planner

Search our weather history database for the weather conditions in past years. The results will help you decide how hot, cold, wet, or windy it might be!

Date:

Astronomy

Mar. 01, 2013 Rise Set
Actual Time 7:03 AM EST 6:27 PM EST
Civil Twilight 6:37 AM EST 6:53 PM EST
Nautical Twilight 6:07 AM EST 7:23 PM EST
Astronomical Twilight 5:37 AM EST 7:53 PM EST
Moon 10:51 PM EST (3/1) 8:57 AM EST (3/1)
Length of Visible Light 12h 16m
Length of Day
11h 24m
Waning Gibbous, 83% of the Moon is Illuminated
Mar 1
Waning Gibbous
Mar 4
Last Quarter
Mar 11
New
Mar 19
First Quarter
Mar 27
Full

Hourly Weather History & Observations

Time (EST) Temp. Windchill Dew Point Humidity Pressure Visibility Wind Dir Wind Speed Gust Speed Precip Events Conditions
12:15 AM 32.0 °F 27.5 °F 30.2 °F 93% 29.96 in 7.0 mi WSW 4.6 mph - N/A   Partly Cloudy
12:35 AM 32.0 °F 27.5 °F 30.2 °F 93% 29.96 in 7.0 mi WSW 4.6 mph - N/A   Scattered Clouds
12:55 AM 32.0 °F 27.5 °F 30.2 °F 93% 29.96 in 7.0 mi SW 4.6 mph - N/A   Mostly Cloudy
1:15 AM 32.0 °F - 32.0 °F 100% 29.96 in 8.0 mi Calm Calm - N/A   Overcast
1:35 AM 32.0 °F 27.5 °F 32.0 °F 100% 29.95 in 9.0 mi WSW 4.6 mph - N/A   Mostly Cloudy
2:15 AM 32.0 °F 27.5 °F 30.2 °F 93% 29.94 in 10.0 mi WSW 4.6 mph - N/A   Mostly Cloudy
2:35 AM 32.0 °F 26.4 °F 32.0 °F 100% 29.94 in 10.0 mi SW 5.8 mph - N/A   Mostly Cloudy
3:15 AM 32.0 °F 27.5 °F 32.0 °F 100% 29.93 in 3.0 mi WSW 4.6 mph - N/A   Overcast
3:35 AM 32.0 °F 27.5 °F 32.0 °F 100% 29.92 in 4.0 mi SW 4.6 mph - N/A   Overcast
3:55 AM 32.0 °F 27.5 °F 32.0 °F 100% 29.92 in 4.0 mi WSW 4.6 mph - N/A   Overcast
4:35 AM 32.0 °F 26.4 °F 32.0 °F 100% 29.92 in 4.0 mi SW 5.8 mph - N/A   Mostly Cloudy
4:55 AM 32.0 °F 26.4 °F 32.0 °F 100% 29.93 in 5.0 mi SW 5.8 mph - N/A   Mostly Cloudy
5:15 AM 32.0 °F 26.4 °F 32.0 °F 100% 29.94 in 5.0 mi SW 5.8 mph - N/A   Mostly Cloudy
5:35 AM 32.0 °F 26.4 °F 32.0 °F 100% 29.94 in 5.0 mi SW 5.8 mph - N/A   Mostly Cloudy
5:55 AM 32.0 °F 27.5 °F 32.0 °F 100% 29.94 in 5.0 mi SW 4.6 mph - N/A   Mostly Cloudy
6:15 AM 32.0 °F 28.7 °F 32.0 °F 100% 29.94 in 5.0 mi SW 3.5 mph - N/A   Mostly Cloudy
6:35 AM 32.0 °F - 32.0 °F 100% 29.94 in 5.0 mi Calm Calm - N/A   Mostly Cloudy
7:15 AM 32.0 °F 27.5 °F 32.0 °F 100% 29.94 in 5.0 mi SW 4.6 mph - N/A   Mostly Cloudy
7:35 AM 32.0 °F 27.5 °F 32.0 °F 100% 29.94 in 3.0 mi SW 4.6 mph - N/A   Mostly Cloudy
7:55 AM 32.0 °F 27.5 °F 32.0 °F 100% 29.95 in 1.8 mi SW 4.6 mph - N/A Rain Light Rain
8:15 AM 32.0 °F 26.4 °F 32.0 °F 100% 29.96 in 1.5 mi SW 5.8 mph - N/A Rain Light Rain
8:35 AM 32.0 °F 28.7 °F 32.0 °F 100% 29.96 in 1.8 mi WSW 3.5 mph - N/A Rain Light Rain
8:55 AM 32.0 °F 28.7 °F 32.0 °F 100% 29.96 in 3.0 mi WSW 3.5 mph - N/A   Overcast
9:15 AM 32.0 °F 25.6 °F 32.0 °F 100% 29.96 in 8.0 mi WSW 6.9 mph - N/A   Overcast
9:35 AM 33.8 °F 28.6 °F 32.0 °F 93% 29.96 in 9.0 mi WSW 5.8 mph - N/A Rain Light Rain
10:15 AM 35.6 °F 31.7 °F 32.0 °F 87% 29.96 in 8.0 mi West 4.6 mph - N/A Rain Light Rain
10:35 AM 35.6 °F 30.7 °F 32.0 °F 87% 29.97 in 10.0 mi West 5.8 mph - N/A Rain Light Rain
11:15 AM 35.6 °F 29.9 °F 32.0 °F 87% 29.96 in 10.0 mi WNW 6.9 mph - N/A   Overcast
11:35 AM 37.4 °F 32.1 °F 32.0 °F 81% 29.97 in 10.0 mi West 6.9 mph - N/A   Overcast
11:55 AM 37.4 °F 31.4 °F 32.0 °F 81% 29.97 in 10.0 mi West 8.1 mph - N/A   Mostly Cloudy
12:15 PM 37.4 °F 32.8 °F 32.0 °F 81% 29.96 in 10.0 mi West 5.8 mph - N/A   Mostly Cloudy
12:35 PM 39.2 °F 35.9 °F 30.2 °F 70% 29.96 in 10.0 mi NW 4.6 mph - N/A   Partly Cloudy
1:15 PM 39.2 °F 32.5 °F 32.0 °F 75% 29.95 in 10.0 mi West 10.4 mph - N/A   Partly Cloudy
1:35 PM 39.2 °F 34.2 °F 30.2 °F 70% 29.94 in 10.0 mi West 6.9 mph - N/A   Partly Cloudy
1:55 PM 39.2 °F 35.0 °F 30.2 °F 70% 29.93 in 10.0 mi West 5.8 mph - N/A   Mostly Cloudy
2:15 PM 41.0 °F 38.0 °F 28.4 °F 61% 29.93 in 10.0 mi NNW 4.6 mph - N/A   Scattered Clouds
2:35 PM 39.2 °F 33.0 °F 28.4 °F 65% 29.93 in 10.0 mi WNW 9.2 mph - N/A   Mostly Cloudy
2:55 PM 39.2 °F 34.2 °F 30.2 °F 70% 29.92 in 10.0 mi WNW 6.9 mph - N/A   Mostly Cloudy
3:15 PM 39.2 °F 33.6 °F 32.0 °F 75% 29.92 in 10.0 mi WNW 8.1 mph - N/A   Mostly Cloudy
3:35 PM 39.2 °F 35.9 °F 32.0 °F 75% 29.92 in 10.0 mi WNW 4.6 mph - N/A   Scattered Clouds
3:55 PM 39.2 °F 35.0 °F 30.2 °F 70% 29.93 in 10.0 mi West 5.8 mph - N/A   Clear
4:15 PM 39.2 °F 34.2 °F 28.4 °F 65% 29.92 in 10.0 mi WNW 6.9 mph - N/A   Mostly Cloudy
4:35 PM 39.2 °F 33.6 °F 30.2 °F 70% 29.92 in 10.0 mi West 8.1 mph - N/A   Mostly Cloudy
5:15 PM 37.4 °F 32.8 °F 32.0 °F 81% 29.93 in 10.0 mi WNW 5.8 mph - N/A   Overcast
5:35 PM 37.4 °F 33.8 °F 32.0 °F 81% 29.94 in 10.0 mi NW 4.6 mph - N/A   Mostly Cloudy
5:55 PM 37.4 °F 32.8 °F 32.0 °F 81% 29.94 in 10.0 mi West 5.8 mph - N/A   Mostly Cloudy
6:15 PM 37.4 °F 34.9 °F 32.0 °F 81% 29.94 in 10.0 mi West 3.5 mph - N/A   Overcast
6:35 PM 37.4 °F 33.8 °F 32.0 °F 81% 29.95 in 10.0 mi SW 4.6 mph - N/A   Overcast
6:55 PM 37.4 °F 32.8 °F 30.2 °F 75% 29.95 in 10.0 mi West 5.8 mph - N/A   Overcast
7:15 PM 35.6 °F 31.7 °F 30.2 °F 81% 29.95 in 10.0 mi West 4.6 mph - N/A   Overcast
7:35 PM 35.6 °F 31.7 °F 30.2 °F 81% 29.96 in 10.0 mi WSW 4.6 mph - N/A   Mostly Cloudy
7:55 PM 35.6 °F - 32.0 °F 87% 29.96 in 10.0 mi Calm Calm - N/A   Mostly Cloudy
8:15 PM 35.6 °F - 32.0 °F 87% 29.96 in 10.0 mi Calm Calm - N/A   Mostly Cloudy
8:35 PM 35.6 °F - 32.0 °F 87% 29.96 in 10.0 mi Calm Calm - N/A   Overcast
8:55 PM 35.6 °F - 30.2 °F 81% 29.96 in 10.0 mi Calm Calm - N/A   Overcast
9:15 PM 35.6 °F 31.7 °F 30.2 °F 81% 29.96 in 10.0 mi NW 4.6 mph - N/A   Overcast
9:35 PM 35.6 °F - 28.4 °F 75% 29.96 in 10.0 mi Calm Calm - N/A   Overcast
9:55 PM 35.6 °F - 28.4 °F 75% 29.97 in 10.0 mi Calm Calm - N/A   Overcast
10:15 PM 35.6 °F - 28.4 °F 75% 29.97 in 10.0 mi Calm Calm - N/A   Overcast
10:35 PM 35.6 °F - 28.4 °F 75% 29.97 in 10.0 mi Calm Calm - N/A   Overcast
10:55 PM 35.6 °F - 28.4 °F 75% 29.96 in 10.0 mi Calm Calm - N/A   Overcast
11:15 PM 35.6 °F - 28.4 °F 75% 29.96 in 10.0 mi Calm Calm - N/A   Overcast
11:35 PM 33.8 °F - 28.4 °F 81% 29.96 in 10.0 mi Calm Calm - N/A   Overcast
11:55 PM 35.6 °F - 28.4 °F 75% 29.95 in 10.0 mi Calm Calm - N/A   Overcast